This is the latest recevied weather packets stored in our database for station/object KM4RT-13. If no packets are shown the sender has not sent any weather packets the latest 10 day(s).
| Time | Temp. | Humidity | Pressure | Rain* | Wind** | Luminosity | Snow |
|---|---|---|---|---|---|---|---|
| 1777695101 | 13.89° C | 53% | 1014 hPa | 0 mm | - | 0 W/m² | - |
| 1777694798 | 13.89° C | 52% | 1013.9 hPa | 0 mm | - | 0 W/m² | - |
| 1777694496 | 13.89° C | 54% | 1013.9 hPa | 0 mm | - | 0 W/m² | - |
| 1777694191 | 13.89° C | 55% | 1013.9 hPa | 0 mm | - | 0 W/m² | - |
| 1777693888 | 13.89° C | 54% | 1013.7 hPa | 0 mm | - | 0 W/m² | - |
| 1777693586 | 13.89° C | 56% | 1013.8 hPa | 0 mm | - | 0 W/m² | - |
| 1777693285 | 13.89° C | 56% | 1014 hPa | 0 mm | - | 0 W/m² | - |
| 1777692982 | 13.89° C | 57% | 1014.1 hPa | 0 mm | - | 0 W/m² | - |
| 1777692680 | 13.89° C | 58% | 1013.9 hPa | 0 mm | - | 0 W/m² | - |
| 1777692375 | 13.89° C | 59% | 1014 hPa | 0 mm | - | 0 W/m² | - |
| 1777692072 | 13.33° C | 60% | 1014 hPa | 0 mm | - | 0 W/m² | - |
| 1777691770 | 13.33° C | 62% | 1014.4 hPa | 0 mm | - | 0 W/m² | - |
| 1777691468 | 13.33° C | 66% | 1014.2 hPa | 0 mm | - | 0 W/m² | - |
| 1777691167 | 12.22° C | 72% | 1014.5 hPa | 0 mm | - | 0 W/m² | - |
| 1777690864 | 12.22° C | 80% | 1014.5 hPa | 0 mm | - | 0 W/m² | - |
| 1777690561 | 12.22° C | 79% | 1014.6 hPa | 0 mm | - | 0 W/m² | - |
| 1777690259 | 12.78° C | 77% | 1014.7 hPa | 0 mm | - | 0 W/m² | - |
| 1777689956 | 12.78° C | 74% | 1014.9 hPa | 0 mm | - | 0 W/m² | - |
| 1777689654 | 12.78° C | 73% | 1015 hPa | 0 mm | - | 0 W/m² | - |
| 1777689352 | 12.78° C | 71% | 1015 hPa | 0 mm | - | 0 W/m² | - |
| 1777689049 | 12.78° C | 71% | 1015.1 hPa | 0 mm | - | 0 W/m² | - |
| 1777688745 | 12.78° C | 73% | 1015.3 hPa | 0 mm | - | 0 W/m² | - |
| 1777688443 | 12.78° C | 71% | 1015.3 hPa | 0 mm | - | 0 W/m² | - |
| 1777688140 | 12.78° C | 73% | 1014.9 hPa | 0 mm | - | 0 W/m² | - |
| 1777687837 | 12.78° C | 73% | 1014.9 hPa | 0 mm | - | 0 W/m² | - |
* Rain latest hour (hover to see other rain measurements)
** Current wind speed in m/s (hover to see current wind gust speed)